Showing default

IONOSFERA-M 04, 64877

Orbit data source: Space-Track

IONOSFERA-M 04, 64877 is a payload satellite owned by VNIIEM (CIS) in SSO that was launched on Fri, 25 Jul 2025 UTC via a SOYUZ-2-1B launch vehicle from the Vostochny Cosmodrome (VOSTO). Payload-class satellites include a variety of spacecraft equipped with specific instruments for various scientific and technological missions. These include communications satellites like Starlink; space stations such as the ISS; scientific satellites like the Hubble; Earth observation satellites from companies like Planet Labs, Umbra, and HawkEye 360; GPS; miniature CubeSats for education and research; and military/defense satellites.

Loading next visibility...
Identifier
64877, 2025-155B
Orbit
SSO
Country
Flag of CISCIS
Related business
Manufacturer
VNIIEM
Mission
Operational Civil Science
Bus & Motor
IONOSFERA-M, Unknown motor
Mass
430 kg wet, 430 kg dry
Launch date (UTC)
2025-07-25 (11 months ago)
Launch vehicle
SOYUZ-2-1B
Launch site
Vostochny Cosmodrome (VOSTO)
Object type
Payload
Rocket body
Debris
Shape & HBR
Box + 1 Ant, 14.5 m
Radar Cross Section
2.359 m², Large (>1 m²)

Expand to show TLE details & history
Last TLE update: 8 hours ago

TLE from 8 hours ago
0 IONOSFERA-M 04
1 64877U 25155B   26171.51853853  .00000041  00000-0  38196-4 0  9991
2 64877  98.6031 133.2571 0001175 119.6897 240.4398 14.21489176 46876
Epoch: 2026-06-20T12:26Z
TLE epoch observation values (Epoch: 2026-06-20T12:26:41.728Z)
Latitude
-0.00002°
Longitude
37.85123°
Altitude
823.658 km
Speed
7.441 km/s
True Right ascension
08h 53m 01s
True Declination
0° 00' 00"
Sunlit
Object was in daylight at epoch
Visualization orbit readout
Latitude
Unknown
Longitude
Unknown
Altitude
Unknown
Speed
Unknown
Apparent Right ascension
Unknown
Apparent Declination
Unknown
Sunlit
N/A
Visualization observer readout
Local Sidereal Time
07:20:12
Azimuth
Unknown
Elevation
Unknown
Doppler factor
Unknown
Orbital elements
Apogee altitude
818.318 km
Perigee altitude
816.627 km
Semi-major axis
7,195.609 km
Eccentricity
0.00012
Inclination
98.6031°
RAAN
133.2571°
Arg. of periapsis
119.6897°
True anomaly
240.42809°
Mean anomaly
240.4398°
Eccentric anomaly
240.43394°
Mean motion
3.55584 °/min
Orbital period
101.24 mins
BSTAR
0.000038196
Loading maneuver chart data...
Computing Atmospheric mass density...
Loading historical data...
Loading historical data...
Loading historical data...
Loading historical data...
Loading historical data...
Loading historical data...
Loading historical data...

Documentation

Showing up to 5 results
|